Wind_Speed
40 38 37 34 41 38 32 19 10 21 35 10 12 14 22 8 11 9 8 7 9 11 11 13 11 13 6 6 7 10 6 5 5 13 5 5 10 8 11 5 6 3 3 8
37 36 36 35 46 47 30 12 8 17 22 13 13 19 21 12 10 12 12 11 9 8 10 10 11 11 5 5 8 5 6 7 7 7 6 7 9 10 9 4 1 7 3 4
40 33 35 35 50 47 32 11 11 6 7 15 18 23 18 17 6 9 10 10 10 10 8 6 7 8 4 5 5 3 1 12 10 10 5 1 12 12 12 13 7 9 10 13
36 36 35 38 51 47 25 11 13 14 13 18 21 21 19 21 12 9 12 11 15 13 8 9 8 9 6 6 5 6 5 8 12 12 5 5 8 9 13 16 15 13 11 11
37 37 33 43 50 46 21 11 13 14 17 23 20 19 22 23 18 14 14 10 15 11 9 11 10 12 10 7 10 9 5 5 2 5 8 8 11 12 13 14 16 16 16 15
36 37 34 49 50 50 14 17 4 12 12 23 18 17 19 21 15 2 4 12 8 10 5 8 9 9 4 3 7 10 5 5 4 5 3 4 6 15 16 15 16 12 15 15
37 31 41 51 54 53 26 14 7 6 13 17 18 19 18 17 16 11 5 6 8 6 13 13 12 11 8 6 5 4 5 4 2 1 2 1 4 1 4 8 14 16 14 13
38 33 39 54 54 57 30 9 7 7 4 12 23 20 18 16 8 9 11 5 5 16 8 4 4 2 2 3 3 3 3 4 2 3 6 8 9 5 1 3 6 6 7 7
32 36 40 53 52 59 28 16 10 8 9 12 22 17 19 10 10 7 4 6 10 4 2 2 5 4 4 5 6 3 4 1 4 3 3 4 4 4 1 1 6 7 6 5
33 36 46 46 51 57 37 7 13 10 7 13 12 13 15 13 10 6 6 8 4 2 2 2 3 4 2 4 5 4 3 1 5 6 3 5 3 3 2 4 3 5 7 9
43 44 44 44 49 52 45 7 4 8 6 6 6 9 11 14 11 7 9 7 2 3 3 3 3 1 4 2 1 5 6 6 3 2 2 5 6 5 1 4 5 6 7 8
41 40 41 46 46 49 42 6 4 5 2 5 2 6 5 3 13 9 12 6 10 7 4 2 2 2 2 0 3 2 3 3 1 5 1 5 6 4 3 4 7 9 9 11
37 39 42 43 45 48 43 7 8 9 3 4 4 5 3 2 2 3 5 3 5 5 3 4 2 3 4 4 4 3 4 2 3 1 3 5 5 7 6 6 6 8 10 11
37 38 39 40 43 47 33 8 4 8 5 3 3 3 2 4 2 6 3 7 6 9 5 3 3 3 4 3 1 2 2 7 5 6 10 7 5 4 3 7 8 9 9 10
34 36 38 39 43 47 15 5 5 7 2 4 5 7 4 3 5 8 7 13 9 5 3 2 2 3 4 2 0 3 5 3 3 3 6 5 7 9 9 8 8 9 8 8
34 35 36 39 41 52 13 4 3 7 8 3 5 3 4 8 11 12 10 5 4 2 4 3 3 2 3 4 4 5 5 5 6 4 10 8 7 10 8 9 9 11 11 12
32 35 37 39 41 38 3 1 6 13 9 2 5 4 3 4 6 2 4 4 4 1 3 2 3 3 3 3 4 8 4 5 5 7 7 4 10 7 9 10 14 18 19 19
35 36 36 40 36 17 4 11 10 13 2 2 4 3 4 3 2 3 4 2 2 5 3 2 3 3 1 3 7 4 6 4 7 6 8 9 9 10 10 14 15 13 12 13
39 41 41 29 6 3 3 9 13 8 3 3 2 6 4 3 3 2 2 1 2 1 2 2 4 3 4 4 3 4 5 4 2 6 8 9 10 11 11 12 12 12 10 9
37 29 6 4 3 14 14 4 2 5 4 2 3 2 4 2 2 2 2 2 3 3 2 4 2 3 4 4 4 5 7 8 5 7 7 8 11 10 11 11 9 8 6 6
6 3 3 3 7 7 3 1 2 2 3 4 3 2 5 2 3 3 2 3 1 4 3 4 4 3 5 6 7 5 6 9 11 12 13 15 13 10 9 7 11 11 9 8
10 18 10 4 2 2 4 2 2 2 2 2 2 3 3 2 0 3 2 3 2 4 4 3 3 4 9 7 7 8 10 14 15 16 14 13 12 11 10 8 6 6 5 7
5 5 5 3 4 5 3 3 2 2 1 1 1 3 2 3 3 3 2 3 2 4 2 3 2 9 8 8 8 9 11 14 14 13 12 12 12 12 10 8 8 8 8 10
5 5 6 4 3 4 2 3 3 2 1 1 4 3 2 1 3 1 3 1 1 3 3 3 5 7 7 8 9 10 11 7 10 11 11 11 11 12 13 12 11 10 10 9
5 4 4 4 2 2 1 1 1 3 1 1 3 3 2 2 3 2 4 2 3 3 0 2 5 9 9 10 9 9 9 4 7 10 10 10 10 11 11 10 9 9 9 10
3 5 3 1 2 3 3 3 3 4 2 2 3 2 2 3 2 3 2 2 2 3 2 4 7 8 6 8 8 8 8 8 9 10 11 10 10 9 8 8 10 10 10 11
3 3 2 2 4 4 2 2 2 4 2 2 2 2 4 1 1 2 2 2 2 3 4 5 6 7 7 8 8 8 9 11 11 11 10 9 8 7 7 7 9 7 7 9
Wind_Direction
220 218 221 215 207 191 182 198 209 154 149 185 204 212 214 213 182 193 209 276 190 224 189 207 220 226 219 164 189 207 207 244 181 223 79 310 301 257 206 226 212 228 306 282
214 215 213 210 203 187 174 199 174 167 189 196 201 212 212 192 196 195 195 203 211 213 205 207 222 217 80 174 211 223 183 225 220 224 203 216 238 228 236 223 323 238 239 279
213 219 211 209 200 186 190 189 180 145 205 214 196 207 194 200 225 189 197 199 179 187 200 216 196 195 155 193 209 359 27 242 227 243 269 275 208 238 218 215 225 244 246 283
209 217 208 203 198 185 197 220 196 175 181 199 201 205 202 197 179 224 192 190 201 198 210 192 209 187 161 184 155 198 236 236 235 262 286 290 281 257 222 233 237 257 266 278
205 209 205 199 197 185 206 218 192 177 169 197 208 194 215 195 192 181 192 210 201 204 202 208 217 199 192 185 181 198 202 224 252 250 241 260 262 254 251 240 249 255 263 281
199 202 202 198 193 183 198 234 127 181 166 192 203 192 210 196 180 212 238 210 166 202 95 54 38 63 58 120 180 197 186 172 181 243 2 297 290 239 249 247 248 253 266 273
193 202 203 202 200 187 198 226 189 163 177 187 195 188 211 199 182 172 154 194 188 104 124 101 80 82 87 96 70 151 167 176 167 225 218 288 256 23 306 272 264 255 265 270
196 203 215 200 199 190 212 224 214 183 141 186 194 192 201 196 147 138 135 64 79 151 153 130 123 111 89 116 82 127 220 165 153 183 220 286 280 177 234 233 281 37 324 325
200 207 214 194 194 194 205 260 247 149 148 195 192 181 198 160 155 148 100 127 110 136 130 133 194 196 217 159 148 124 94 121 224 164 214 235 78 80 79 216 251 63 36 15
193 201 195 191 195 197 199 234 227 174 159 186 180 195 200 194 178 151 134 158 160 258 112 122 195 202 333 187 190 189 135 220 212 204 252 283 71 134 208 241 44 16 346 324
200 200 199 195 194 197 198 225 219 197 151 112 188 217 183 205 203 162 133 142 153 159 169 176 179 149 194 215 200 182 188 175 188 167 208 259 140 139 214 31 313 327 320 320
185 187 193 193 192 195 196 211 137 114 183 82 98 48 3 256 211 210 178 205 154 174 177 73 113 125 38 82 226 183 222 231 277 216 246 111 186 322 331 315 307 311 312 303
191 191 190 189 191 193 193 185 144 128 100 118 169 164 99 81 2 25 190 220 129 162 26 144 128 145 168 166 222 206 213 180 230 304 155 242 256 280 289 293 281 300 314 313
186 187 188 188 191 190 190 191 142 143 85 127 129 125 152 320 254 200 279 123 94 122 142 117 133 125 228 184 310 207 356 163 230 247 273 279 273 276 341 331 325 307 323 336
182 185 185 186 189 184 183 135 73 105 156 142 142 133 24 3 167 178 159 156 144 148 121 107 130 119 130 89 59 232 189 247 216 254 7 333 320 15 1 323 10 12 356 1
181 182 182 184 184 180 177 145 49 114 89 126 152 93 75 86 108 119 134 137 131 146 114 122 106 86 189 154 199 83 55 25 1 305 336 318 309 60 27 56 46 59 60 59
173 176 177 177 170 171 225 109 129 137 118 150 132 132 112 114 141 86 98 72 80 87 113 85 133 135 188 152 208 103 48 6 37 6 324 186 42 57 61 75 81 72 73 74
156 159 159 155 155 143 121 47 102 122 45 269 140 101 152 334 87 92 16 56 105 26 86 83 115 110 208 218 98 61 26 321 76 36 49 76 85 81 73 76 81 80 78 84
128 131 132 130 127 124 70 111 121 147 285 233 134 141 146 92 66 63 71 19 94 131 100 141 149 161 199 90 102 58 33 28 59 79 81 84 87 86 89 94 94 96 95 95
117 120 98 128 84 116 104 58 195 196 201 350 93 77 124 202 129 91 126 38 140 143 125 158 208 146 96 102 101 93 65 46 126 140 104 106 92 91 95 100 106 108 95 67
81 83 72 61 84 65 13 141 14 8 57 30 66 89 118 16 135 134 339 129 99 155 144 198 174 193 146 126 105 77 78 79 80 84 86 95 111 108 109 109 65 41 24 18
100 116 137 150 79 63 91 54 41 29 95 38 81 84 89 96 109 110 163 110 134 168 137 179 212 121 132 134 122 114 102 100 98 103 106 105 95 94 72 67 54 35 31 35
84 71 64 15 354 60 67 148 97 101 42 31 122 81 64 108 66 79 108 125 139 153 164 216 44 135 143 137 133 126 128 113 109 101 93 90 83 78 78 79 50 43 55 41
53 39 44 13 51 53 20 6 38 29 324 51 94 70 59 46 76 42 117 57 191 193 225 200 143 146 130 142 154 142 123 93 99 97 97 96 95 81 73 65 55 54 46 33
57 25 65 69 104 47 357 326 62 2 340 335 90 75 64 48 103 60 117 134 220 220 67 123 131 141 141 159 149 116 118 127 119 112 102 98 105 99 80 62 56 51 40 28
59 40 78 19 111 56 28 15 41 4 352 337 45 76 67 73 68 167 188 207 194 105 89 110 127 149 172 145 119 123 133 139 109 106 103 94 87 89 87 69 44 36 29 18
51 46 9 21 69 55 37 21 6 321 28 57 34 53 49 91 138 113 7 31 58 111 111 121 139 158 162 139 121 120 120 117 109 100 97 97 94 90 69 46 24 12 16 8
Height
705 713 721 728 734 744 755 754 748 752 754 759 753 749 737 733 733 733 735 736 735 742 741 751 750 751 747 748 750 761 754 761 781 771 760 759 759 761 765 790 790 789 796 782
697 705 713 721 726 732 744 739 736 752 750 747 747 736 732 731 732 732 737 739 734 734 743 755 748 748 759 759 757 756 759 768 785 777 771 765 768 762 763 766 783 787 803 781
689 697 706 713 718 727 737 723 727 743 749 731 732 734 728 738 728 727 727 730 732 740 745 742 750 752 762 763 757 775 767 762 768 779 765 755 771 763 761 769 785 782 775 764
681 692 699 706 712 723 733 710 703 705 728 723 722 724 727 730 734 728 727 734 735 739 749 748 752 749 765 766 776 768 764 772 763 759 764 762 760 759 760 765 764 773 765 757
676 684 692 698 706 719 727 699 692 698 710 719 719 725 722 723 722 727 731 729 729 730 741 744 748 747 754 756 764 764 765 771 773 780 765 768 768 759 756 755 757 755 753 756
671 680 686 691 700 707 712 697 691 690 707 712 717 716 717 717 715 728 718 722 728 735 738 740 741 741 743 744 756 763 768 777 784 781 782 780 795 771 758 753 749 753 763 751
664 673 678 687 693 699 701 692 688 694 711 705 713 714 716 714 715 726 726 722 727 744 742 745 748 751 755 757 762 758 779 776 782 785 805 811 753 749 750 753 746 742 746 746
659 666 675 681 688 698 695 693 689 694 715 705 711 713 714 714 718 724 729 737 734 739 741 754 765 770 776 773 767 768 766 774 788 796 780 763 754 753 758 759 756 745 751 747
654 662 673 677 686 690 698 692 688 683 702 706 702 711 713 721 724 737 746 743 742 746 748 756 765 768 759 769 771 772 775 778 777 790 797 800 762 758 758 757 765 756 756 758
649 659 667 673 681 687 696 691 688 684 695 696 702 709 714 713 717 726 743 748 751 748 755 770 762 761 754 767 775 794 785 787 789 785 789 771 752 759 759 774 773 759 761 759
646 655 663 670 678 686 697 689 687 684 690 701 704 703 711 713 714 730 736 744 747 751 760 763 757 765 760 761 756 770 772 779 788 785 801 791 756 762 771 763 758 758 759 758
643 650 659 668 676 685 694 689 688 690 692 705 712 713 715 711 714 715 729 720 730 734 740 753 757 775 781 762 771 760 769 761 763 766 761 755 755 756 754 758 761 760 761 759
641 648 657 666 675 683 693 690 690 693 699 708 712 715 720 720 720 720 719 723 720 729 732 748 756 771 765 780 761 756 757 760 766 767 751 752 753 753 754 757 758 758 758 758
642 649 657 666 674 683 695 693 692 692 701 715 715 718 721 722 720 721 722 720 727 731 733 746 764 764 753 763 756 759 756 761 759 759 752 748 751 752 755 758 759 759 758 759
641 649 657 666 674 685 697 694 694 694 696 716 716 720 724 720 719 721 722 725 725 729 742 755 752 752 759 766 764 759 754 752 764 763 752 756 754 756 761 761 762 765 766 765
642 649 658 667 676 689 693 694 699 696 699 708 716 722 724 721 720 720 721 724 723 724 734 748 744 752 751 769 759 751 754 758 761 759 759 762 761 763 769 771 772 774 775 775
642 651 661 670 680 691 693 692 697 698 702 709 718 719 725 726 724 729 727 728 728 726 735 747 747 751 749 768 758 758 764 767 766 767 763 759 769 772 777 779 782 785 785 787
647 656 666 679 690 695 698 698 697 698 707 708 715 722 724 725 726 730 732 735 732 742 749 756 753 759 758 757 759 765 769 767 769 771 770 772 777 781 784 787 791 794 796 798
657 665 675 684 691 692 697 705 705 709 717 707 711 719 724 726 736 740 741 739 747 752 758 756 754 768 759 764 767 770 774 773 772 775 777 780 784 789 793 795 798 799 801 800
665 674 681 688 697 699 701 712 716 715 714 713 722 718 723 726 740 747 746 750 750 752 758 757 760 759 770 776 776 776 774 773 773 778 782 785 788 794 798 800 802 802 801 801
666 679 692 696 695 699 707 711 705 702 709 719 725 725 723 736 736 748 752 751 753 752 752 757 758 763 772 778 779 782 781 780 781 783 787 792 796 799 802 802 803 805 807 807
676 681 696 701 700 703 711 718 719 715 719 731 728 733 733 740 736 741 749 753 756 749 754 756 751 772 779 785 787 786 785 786 789 792 794 796 799 801 804 806 807 808 808 808
678 684 696 696 714 712 714 718 722 727 732 736 734 736 737 739 740 747 746 752 747 751 754 746 757 775 783 786 787 787 788 789 791 795 798 801 805 807 807 809 809 809 809 810
694 703 714 718 721 732 735 732 733 743 742 736 735 739 740 746 747 752 745 765 758 754 752 749 769 780 784 787 787 787 791 796 797 800 804 807 809 810 811 811 812 812 812 813
717 720 727 737 746 747 747 746 744 747 745 740 736 740 738 749 749 755 758 760 749 748 749 766 776 783 786 786 786 790 795 799 799 803 806 809 810 811 813 814 815 815 815 814
732 739 740 746 743 746 748 748 748 749 747 744 742 747 745 752 751 749 746 744 738 758 769 776 781 785 786 786 790 793 795 798 801 805 808 810 812 813 815 815 815 816 815 815
740 746 751 749 750 753 755 755 755 753 751 752 751 745 753 760 751 753 757 755 765 774 777 780 784 785 787 789 793 796 798 800 804 807 810 813 814 815 815 815 816 816 816 816